Skip Page Navigation
NASA JPL Caltech
NASA Logo - Jet Propulsion Laboratory + View the NASA Portal
+ Center for Near-Earth Object Studies
JPL Home Earth Solar System Stars & Galaxies Technology
JPL Solar System Dynamics
BODIES ORBITS EPHEMERIDES TOOLS PHYSICAL DATA DISCOVERY FAQ SITE MAP
IMPORTANT: The SSD Announcement email list is now available. Major changes are coming in the near future, including possible hostname and/or URL changes. To be notified of such changes, subscribe to this email list.

Please visit this page for more details.


JPL Small-Body Database Browser
Search: [ help ]  
27014 (1998 FP106)
Classification: Main-belt Asteroid          SPK-ID: 2027014
Ephemeris | Orbit Diagram | Orbital Elements | Mission Design | Physical Parameters | Discovery Circumstances | Close-Approach Data ]

[ show orbit diagram ]
Orbital Elements at Epoch 2459000.5 (2020-May-31.0) TDB
Reference: JPL 19 (heliocentric ecliptic J2000)
 Element Value Uncertainty (1-sigma)   Units 
e .1640540888074946 5.3708e-08  
a 2.555888971204541 1.2498e-08 au
q 2.136584934940455 1.4006e-07 au
i 4.451770686968509 4.5413e-06 deg
node 246.1584145983929 7.1018e-05 deg
peri 308.7403573275517 7.3099e-05 deg
M 149.7304127470279 2.0647e-05 deg
tp 2458379.746861746572
(2018-Sep-18.24686175)
8.3054e-05 TDB
period 1492.489906835375
4.09
1.0947e-05
2.997e-08
d
yr
n .2412076613391187 1.7692e-09 deg/d
Q 2.975193007468627 1.4548e-08 au
  Orbit Determination Parameters
   # obs. used (total)      773  
   data-arc span      9660 days (26.45 yr)  
   first obs. used      1992-11-25  
   last obs. used      2019-05-08  
   planetary ephem.      DE431  
   SB-pert. ephem.      SB431-N16  
   condition code      0  
   norm. resid. RMS      .59159  
   source      ORB  
   producer      Otto Matic  
   solution date      2019-May-30 03:26:34  

Additional Information
 Earth MOID = 1.1386 au 
 Jupiter MOID = 2.00499 au 
 T_jup = 3.414 
[ show covariance matrix ]

Ephemeris | Orbit Diagram | Orbital Elements | Mission Design | Physical Parameters | Discovery Circumstances | Close-Approach Data ]

Physical Parameter Table
Parameter Symbol Value Units Sigma Reference Notes
absolute magnitude H 15.3   n/a MPO474120  
diameter diameter 3.045 km 0.160 urn:nasa:pds:neowise_diameters_albedos::2.0[mainbelt] (http://adsabs.harvard.edu/abs/2011ApJ...741...68M)  
geometric albedo albedo 0.100   0.014 urn:nasa:pds:neowise_diameters_albedos::2.0[mainbelt] (http://adsabs.harvard.edu/abs/2011ApJ...741...68M)  

27014 (1998 FP106)          Discovered 1998-Mar-31 by LINEAR at Socorro
Reference: 20010804/Numbers.arcLast Updated: 2004-04-19

[ show close-approach data ]
Alternate Designations
 1998 FP106 = 1996 XP2 
Ephemeris | Orbit Diagram | Orbital Elements | Mission Design | Physical Parameters | Discovery Circumstances | Close-Approach Data ]
ABOUT SSD CREDITS/AWARDS PRIVACY/COPYRIGHT GLOSSARY LINKS
FirstGov 2020-Mar-30 17:39 UT
(server date/time)  
NASA Home Page
Site Manager:   Ryan S. Park
Webmaster  Alan B. Chamberlin